Flag for Germany Weather past 2 weeks in Apolda, Thuringia, Germany

Now
35 °F

Passing clouds.


Feels Like: 30 °F
Forecast: 26 / 33 °F
Wind: 5 mph from Northwest

Location: Erfurt-Bindersleben

Current Time: Dec 26, 2014 at 4:17:54 PM

Latest Report: Dec 26, 2014 at 3:00 PM


Visibility: 31 mi

Pressure: 30.35 "Hg

Humidity: 78%

Dew point: 28 °F

Location of ApoldaLocation

Historic Weather in Apolda — Graph

°F

Apolda temperature yesterday

Maximum temperature yesterday: 41 °F (at 1:00 PM)
Minimum temperature yesterday: 35 °F (at 4:00 AM)
Average temperature yesterday: 37 °F

Past Weeks' High & Low Weather Summary

 TemperatureHumidityPressure
High54 °F (Dec 18, 11:00 PM)100% (Dec 13, 10:00 PM)30.40 "Hg (Dec 13, 10:00 PM)
Low28 °F (Dec 15, 2:00 AM)74% (Dec 23, 11:00 AM)29.50 "Hg (Dec 12, 5:00 PM)
Average41 °F86%29.98 "Hg
* Reported Dec 11 3:00 PM — Dec 26 3:00 PM, Apolda, Weather by CustomWeather, © 2014

Note: Actual official high and low records may vary slightly from our data, if they occured in-between our weather recording intervals... More about our weather records

Advertising

Apolda weather history for previous 24 hours

 ConditionsComfort  
Time TempWeatherWind HumidityBarometerVisibility
3:00 PM
Dec 26
35 °FPassing clouds.5 mph78%30.35 "Hg31 mi
2:00 PM34 °FPassing clouds.5 mph80%30.35 "Hg25 mi
1:00 PM35 °FPassing clouds.7 mph82%30.35 "Hg19 mi
12:00 PM34 °FScattered clouds.5 mph84%30.36 "Hg19 mi
11:00 AM33 °FPartly sunny.3 mph86%30.37 "Hg19 mi
10:00 AM33 °FPartly sunny.5 mph89%30.38 "Hg25 mi
9:00 AM32 °FOvercast.2 mph89%30.37 "Hg25 mi
8:00 AM32 °FOvercast.3 mph91%30.35 "Hg25 mi
7:00 AM32 °FOvercast.5 mph92%30.35 "Hg25 mi
6:00 AM33 °FSnow flurries. Low clouds.6 mph94%30.34 "Hg2 mi
5:00 AM33 °FSnow flurries. Low clouds.2 mph92%30.34 "Hg19 mi
4:00 AM34 °FOvercast.2 mph91%30.33 "Hg25 mi
3:00 AM34 °FOvercast.3 mph89%30.32 "Hg25 mi
2:00 AM34 °FOvercast.2 mph91%30.32 "Hg25 mi
1:00 AM34 °FOvercast.5 mph88%30.30 "Hg22 mi
12:00 AM35 °FOvercast.7 mph85%30.28 "Hg22 mi
11:00 PM
Dec 25
35 °FOvercast.3 mph90%30.27 "Hg22 mi
10:00 PM36 °FOvercast.8 mph85%30.23 "Hg22 mi
9:00 PM35 °FChilly.7 mph86%30.21 "HgN/A
8:00 PM36 °FPassing clouds.10 mph84%30.19 "Hg16 mi
7:00 PM36 °FPassing clouds.8 mph87%30.18 "Hg12 mi
6:00 PM37 °FSprinkles. Passing clouds.10 mph90%30.16 "Hg12 mi
5:00 PM37 °FPassing clouds.9 mph90%30.15 "Hg9 mi
4:00 PM38 °FSprinkles. Partly sunny.10 mph88%30.14 "Hg11 mi
Weather by CustomWeather, © 2014

See weather overviewHow to use our weather pages